COSMOS 2202

Satellite information

Favourite Embed

Satellite Type and Status

PAYLOADIN ORBIT

Key statistics

Satellite COSMOS 2202 at a glance.

Uptime

12164

Days in orbit

Revolutions

≈ 12.6

Per day

Orbit

LEO

Low Earth Orbit

Inclination

82.6

Latest

Satellite identification and parameters

Extended collection of information and parameters for COSMOS 2202.

Object identification

Identified? True

Debris? False

Object name: COSMOS 2202

International designator: 1992-042F

Object number (NORAD): 22039

Object ID (CCSDS): 22039

Country: COMMONWEALTH OF INDEPENDENT STATES (CIS)

Current information (Y/N): Y

RCS size: LARGE

Orbital parameters

Period: 114.045 minutes

Inclination: 82.6001 deg

SMA: 7790.136 km

Apoapsis: 1419.48 km

Periapsis: 1404.522 km

RAAN: 39.2977 deg

Eccentricy: 0.0009601

Argument of periapsis: 104.3978 deg

Mean anomaly: 15.712 deg

Mean motion: 12.62656469 rev/day

Mean motion (dot): 0.00000018 rev/day2

B* drag term: 0.000039292 1/REarth

Two-line elements (TLE)

Creation date: Oct. 31, 2025, 11:06 p.m.

Reference frame: TEME

Reference center: EARTH

Epoch: Oct. 31, 2025, 6:01 p.m. UTC

TLE line 0: 0 COSMOS 2202

TLE line 1: 1 22039U 92042F 25304.75122391 .00000018 00000-0 39292-4 0 9995

TLE line 2: 2 22039 82.6001 39.2977 0009601 104.3978 15.7120 12.62656469534577

Live tracking on map

Real-time ground track for satellite COSMOS 2202.

In-orbit conjunctions

There are no conjunctions computed for COSMOS 2202, at the moment. Check back to stay up to date, as we update our databases every day.

Go to all conjunctions

Associated space launch

Second generation store-dump military communications satellite

COSMOS 2202 was lifted into orbit during the mission ‘Tsiklon-3 | Strela-3 79 to 82’, on board a Tsiklon-3 space rocket.

The launch took place on July 13, 1992, 5:41 p.m. from 32/1.

For more information about the launch, click the button.

Launch to space Tsiklon-3 | Strela-3 79 to 82
Tsiklon-3 | Strela-3 79 to 82

Agency: N/A

Status: Launch Successful

Launch date: July 13, 1992, 5:41 p.m. UTC

Rocket: Tsiklon-3

Launch pad: 32/1

Location: Plesetsk Cosmodrome, Russian Federation

...

Latest news about this satellite

There are no fresh news available about this satellite. Check back as we update our databases every day.


Newsletter sign-up

Weekly statistics, charts and insights to help you stay on top of the space industry.